ACA1087 BGGH-CYHZ

Flight info

Callsign ACA1087
Flight time N/A
Altitude 36000
Route NUKRI2A NUKRI DCT URTAK/N0450F360 DCT YYR DCT SATIP DCT CAYLY CABOT5
Aircraft A319/M-SDE3FGHIRWY/LB1

Departure

Time 2026-04-27 21:51
Airport Nuuk International Airport (BGGH)

Arrival

Time N/A
Airport Halifax / Stanfield International Airport (CYHZ)
Time Latitude Longitude Altitude Speed Heading
2026-04-27 21:41 64.19135 -51.67442 280 ft 0 kts 114°
2026-04-27 21:46 64.19132 -51.67435 280 ft 1 kts 126°
2026-04-27 21:46 64.19117 -51.67440 284 ft 5 kts 191°
2026-04-27 21:46 64.19080 -51.67482 280 ft 7 kts 218°
2026-04-27 21:47 64.19065 -51.67585 280 ft 8 kts 276°
2026-04-27 21:47 64.19079 -51.67685 280 ft 3 kts 287°
2026-04-27 21:47 64.19089 -51.67762 280 ft 9 kts 284°
2026-04-27 21:47 64.19048 -51.67841 280 ft 9 kts 201°
2026-04-27 21:48 64.18984 -51.67896 280 ft 11 kts 200°
2026-04-27 21:48 64.18922 -51.68031 279 ft 15 kts 215°
2026-04-27 21:48 64.18781 -51.68153 274 ft 29 kts 197°
2026-04-27 21:48 64.18568 -51.68307 269 ft 33 kts 197°
2026-04-27 21:49 64.18340 -51.68472 261 ft 36 kts 198°
2026-04-27 21:49 64.18201 -51.68504 257 ft 13 kts 172°
2026-04-27 21:49 64.18167 -51.68597 253 ft 8 kts 326°
2026-04-27 21:49 64.18180 -51.68595 254 ft 0 kts 18°
2026-04-27 21:50 64.18184 -51.68592 254 ft 10 kts 18°
2026-04-27 21:50 64.18508 -51.68356 269 ft 84 kts 17°
2026-04-27 21:50 64.19263 -51.67810 335 ft 137 kts 14°
2026-04-27 21:51 64.19893 -51.67364 618 ft 148 kts 14°
2026-04-27 21:51 64.20925 -51.66685 1223 ft 160 kts 12°
2026-04-27 21:51 64.21985 -51.66847 1933 ft 159 kts 328°
2026-04-27 21:51 64.22466 -51.69151 2499 ft 179 kts 270°
2026-04-27 21:52 64.21800 -51.71670 3085 ft 202 kts 222°
2026-04-27 21:52 64.20560 -51.73448 3602 ft 219 kts 210°
2026-04-27 21:52 64.19031 -51.74541 3987 ft 244 kts 194°
2026-04-27 21:52 64.17275 -51.75192 4480 ft 268 kts 191°
2026-04-27 21:53 64.15362 -51.75736 5158 ft 283 kts 189°
2026-04-27 21:53 64.13387 -51.76268 6131 ft 288 kts 187°
2026-04-27 21:53 64.11358 -51.76122 7012 ft 295 kts 177°
2026-04-27 21:53 64.09291 -51.75743 7877 ft 301 kts 177°
2026-04-27 21:54 64.07179 -51.75375 8741 ft 307 kts 178°
2026-04-27 21:54 64.05026 -51.75025 9596 ft 313 kts 179°
2026-04-27 21:54 64.02824 -51.74682 10315 ft 324 kts 179°
2026-04-27 21:54 64.00513 -51.73847 10610 ft 350 kts 166°
2026-04-27 21:55 63.98174 -51.71875 11129 ft 365 kts 153°
2026-04-27 21:55 63.95997 -51.68842 11860 ft 370 kts 140°
2026-04-27 21:55 63.94096 -51.64881 12625 ft 371 kts 128°
2026-04-27 21:55 63.92392 -51.60437 13400 ft 376 kts 127°
2026-04-27 21:56 63.90657 -51.55920 14106 ft 381 kts 127°
2026-04-27 21:56 63.87116 -51.46785 15436 ft 390 kts 128°
2026-04-27 21:56 63.85148 -51.42469 16075 ft 399 kts 142°
2026-04-27 21:57 63.82696 -51.39466 16733 ft 405 kts 161°
2026-04-27 21:57 63.79953 -51.38181 17535 ft 402 kts 180°
2026-04-27 21:57 63.77194 -51.38653 18244 ft 397 kts 198°
2026-04-27 21:57 63.74638 -51.40823 18819 ft 390 kts 215°
2026-04-27 21:58 63.72392 -51.44187 19434 ft 386 kts 222°
2026-04-27 21:58 63.70284 -51.47839 20266 ft 377 kts 227°
2026-04-27 21:58 63.68395 -51.51836 21040 ft 367 kts 236°
2026-04-27 21:58 63.66797 -51.56265 21539 ft 364 kts 245°
2026-04-27 21:59 63.65571 -51.61262 21674 ft 367 kts 256°
2026-04-27 21:59 63.64464 -51.66529 22107 ft 380 kts 247°
2026-04-27 21:59 63.62899 -51.71375 22841 ft 386 kts 237°
2026-04-27 21:59 63.61192 -51.75948 23688 ft 377 kts 242°
2026-04-27 22:00 63.59743 -51.80712 24134 ft 370 kts 248°
2026-04-27 22:00 63.58521 -51.85634 24523 ft 347 kts 248°
2026-04-27 22:00 63.57234 -51.90300 24806 ft 367 kts 247°
2026-04-27 22:00 63.55855 -51.95314 24998 ft 387 kts 246°
2026-04-27 22:01 63.54387 -52.00512 25470 ft 402 kts 241°
2026-04-27 22:01 63.52340 -52.05011 26039 ft 425 kts 223°
2026-04-27 22:01 63.49947 -52.08532 26577 ft 432 kts 219°
2026-04-27 22:01 63.47365 -52.12188 27273 ft 435 kts 219°
2026-04-27 22:02 63.44790 -52.15780 27928 ft 438 kts 219°
2026-04-27 22:02 63.43324 -52.17819 28290 ft 440 kts 218°
2026-04-27 22:02 63.41266 -52.20684 28765 ft 443 kts 218°
2026-04-27 22:02 63.38638 -52.24348 29332 ft 447 kts 218°
2026-04-27 22:03 63.35988 -52.28048 29882 ft 451 kts 218°
2026-04-27 22:03 63.33319 -52.31783 30344 ft 455 kts 218°
2026-04-27 22:03 63.30630 -52.35546 30754 ft 458 kts 218°
2026-04-27 22:03 63.27922 -52.39327 31180 ft 461 kts 218°
2026-04-27 22:04 63.25204 -52.43106 31733 ft 460 kts 217°
2026-04-27 22:04 63.22489 -52.46872 32321 ft 460 kts 217°
2026-04-27 22:04 63.19847 -52.50523 32915 ft 458 kts 217°
2026-04-27 22:04 63.17166 -52.54217 33516 ft 457 kts 217°
2026-04-27 22:05 63.14468 -52.57933 34105 ft 457 kts 217°
2026-04-27 22:05 63.11771 -52.61644 34587 ft 456 kts 217°
2026-04-27 22:05 63.09077 -52.65344 35062 ft 456 kts 217°
2026-04-27 22:05 63.06384 -52.69037 35527 ft 456 kts 217°
2026-04-27 22:06 63.03684 -52.72726 35890 ft 456 kts 217°
2026-04-27 22:06 63.00987 -52.76401 36005 ft 456 kts 217°
2026-04-27 22:06 62.98289 -52.80065 36027 ft 456 kts 216°
2026-04-27 22:07 62.92895 -52.87364 36026 ft 455 kts 216°
2026-04-27 22:07 62.87497 -52.94627 36036 ft 455 kts 216°
2026-04-27 22:08 62.82135 -53.01818 36034 ft 455 kts 216°
2026-04-27 22:08 62.76733 -53.09047 36054 ft 455 kts 216°
2026-04-27 22:09 62.71325 -53.16259 36047 ft 455 kts 216°
2026-04-27 22:09 62.65926 -53.23448 36020 ft 454 kts 217°
2026-04-27 22:10 62.60529 -53.30587 36040 ft 454 kts 217°
2026-04-27 22:10 62.55132 -53.37675 36056 ft 454 kts 216°
2026-04-27 22:11 62.49724 -53.44747 36064 ft 453 kts 216°
2026-04-27 22:11 62.44324 -53.51772 36073 ft 453 kts 216°
2026-04-27 22:12 62.38927 -53.58780 36054 ft 452 kts 217°
2026-04-27 22:12 62.33524 -53.65761 36076 ft 452 kts 217°
2026-04-27 22:13 62.28131 -53.72705 36080 ft 452 kts 217°
2026-04-27 22:13 62.22775 -53.79576 36095 ft 451 kts 217°
2026-04-27 22:14 62.17377 -53.86460 36096 ft 451 kts 216°
2026-04-27 22:14 62.11980 -53.93311 36087 ft 451 kts 217°
2026-04-27 22:15 62.06581 -54.00135 36103 ft 451 kts 217°
2026-04-27 22:15 62.01189 -54.06935 36120 ft 450 kts 217°
2026-04-27 22:16 61.95790 -54.13715 36112 ft 450 kts 216°
2026-04-27 22:16 61.90386 -54.20461 36125 ft 450 kts 216°
2026-04-27 22:17 61.84982 -54.27167 36104 ft 450 kts 217°
2026-04-27 22:17 61.79583 -54.33863 36134 ft 449 kts 217°
2026-04-27 22:18 61.74189 -54.40541 36140 ft 449 kts 217°
2026-04-27 22:18 61.68799 -54.47181 36149 ft 449 kts 216°
2026-04-27 22:19 61.63407 -54.53788 36148 ft 448 kts 216°
2026-04-27 22:19 61.58005 -54.60363 36137 ft 448 kts 217°
2026-04-27 22:20 61.52614 -54.66895 36152 ft 447 kts 217°
2026-04-27 22:20 61.47261 -54.73370 36165 ft 447 kts 217°
2026-04-27 22:21 61.41760 -54.79630 36168 ft 452 kts 210°
2026-04-27 22:21 61.35971 -54.84826 36176 ft 453 kts 209°
2026-04-27 22:22 61.30196 -54.89852 36147 ft 452 kts 209°
2026-04-27 22:22 61.24391 -54.94888 36170 ft 452 kts 209°
2026-04-27 22:23 61.18596 -54.99940 36186 ft 451 kts 209°
2026-04-27 22:23 61.12776 -55.05015 36181 ft 451 kts 209°
2026-04-27 22:24 61.06992 -55.10052 36180 ft 451 kts 209°
2026-04-27 22:24 61.01247 -55.15027 36169 ft 451 kts 209°
2026-04-27 22:25 60.95459 -55.19987 36192 ft 450 kts 209°
2026-04-27 22:25 60.89671 -55.24916 36192 ft 450 kts 209°
2026-04-27 22:26 60.83882 -55.29837 36204 ft 450 kts 209°
2026-04-27 22:26 60.78115 -55.34734 36177 ft 447 kts 209°
2026-04-27 22:27 60.72383 -55.39592 36213 ft 445 kts 209°
2026-04-27 22:27 60.66667 -55.44402 36225 ft 444 kts 209°
2026-04-27 22:28 60.60957 -55.49195 36225 ft 443 kts 209°
2026-04-27 22:28 60.55253 -55.53971 36224 ft 442 kts 209°
2026-04-27 22:29 60.49557 -55.58716 36196 ft 442 kts 209°
2026-04-27 22:29 60.43869 -55.63427 36200 ft 441 kts 209°
2026-04-27 22:30 60.38237 -55.68086 36206 ft 440 kts 209°
2026-04-27 22:30 60.32566 -55.72760 36211 ft 440 kts 209°
2026-04-27 22:31 60.26896 -55.77420 36223 ft 440 kts 208°
2026-04-27 22:31 60.21229 -55.82047 36223 ft 440 kts 208°
2026-04-27 22:32 60.15564 -55.86665 36225 ft 439 kts 208°
2026-04-27 22:32 60.09898 -55.91265 36222 ft 439 kts 208°
2026-04-27 22:33 60.04232 -55.95830 36226 ft 439 kts 208°
2026-04-27 22:33 59.98565 -56.00390 36220 ft 439 kts 208°
2026-04-27 22:34 59.92903 -56.04948 36189 ft 438 kts 208°
2026-04-27 22:34 59.88197 -56.08705 36203 ft 438 kts 208°
2026-04-27 22:35 59.82537 -56.13215 36214 ft 438 kts 208°
2026-04-27 22:35 59.76874 -56.17696 36217 ft 438 kts 208°
2026-04-27 22:36 59.71208 -56.22162 36227 ft 438 kts 208°
2026-04-27 22:36 59.65552 -56.26644 36190 ft 438 kts 208°
2026-04-27 22:37 59.59882 -56.31116 36214 ft 438 kts 208°
2026-04-27 22:37 59.54208 -56.35556 36225 ft 439 kts 208°
2026-04-27 22:38 59.48532 -56.39974 36235 ft 439 kts 208°
2026-04-27 22:38 59.42854 -56.44376 36237 ft 438 kts 208°
2026-04-27 22:39 59.37182 -56.48768 36207 ft 438 kts 207°
2026-04-27 22:39 59.31511 -56.53147 36220 ft 438 kts 207°
2026-04-27 22:40 59.25877 -56.57478 36229 ft 438 kts 207°
2026-04-27 22:40 59.20204 -56.61825 36227 ft 438 kts 207°
2026-04-27 22:41 59.14535 -56.66145 36238 ft 438 kts 207°
2026-04-27 22:41 59.08862 -56.70455 36225 ft 438 kts 207°
2026-04-27 22:42 59.03175 -56.74755 36241 ft 438 kts 207°
2026-04-27 22:42 58.97488 -56.79050 36248 ft 439 kts 207°
2026-04-27 22:43 58.91801 -56.83331 36256 ft 438 kts 207°
2026-04-27 22:43 58.86117 -56.87590 36256 ft 438 kts 207°
2026-04-27 22:44 58.80432 -56.91827 36229 ft 438 kts 207°
2026-04-27 22:44 58.74757 -56.96057 36242 ft 437 kts 207°
2026-04-27 22:45 58.69083 -57.00272 36250 ft 437 kts 207°
2026-04-27 22:45 58.63412 -57.04476 36251 ft 437 kts 207°
2026-04-27 22:46 58.57735 -57.08658 36257 ft 437 kts 207°
2026-04-27 22:46 58.52054 -57.12813 36238 ft 437 kts 207°
2026-04-27 22:47 58.46375 -57.16958 36249 ft 437 kts 207°
2026-04-27 22:47 58.40700 -57.21106 36255 ft 437 kts 207°
2026-04-27 22:48 58.35020 -57.25236 36241 ft 437 kts 207°
2026-04-27 22:48 58.29336 -57.29341 36249 ft 437 kts 207°
2026-04-27 22:49 58.23654 -57.33428 36251 ft 436 kts 207°
2026-04-27 22:49 58.17977 -57.37514 36269 ft 436 kts 207°
2026-04-27 22:50 58.12307 -57.41590 36279 ft 436 kts 207°
2026-04-27 22:50 58.06677 -57.45610 36282 ft 435 kts 206°
2026-04-27 22:50 58.03840 -57.47625 36154 ft 435 kts 207°
2026-04-27 22:51 58.01008 -57.49637 35877 ft 434 kts 207°
2026-04-27 22:51 57.98180 -57.51645 35636 ft 433 kts 207°
2026-04-27 22:51 57.95362 -57.53638 35394 ft 433 kts 206°
2026-04-27 22:51 57.92530 -57.55571 35162 ft 433 kts 206°
2026-04-27 22:52 57.89680 -57.57418 34926 ft 433 kts 205°
2026-04-27 22:52 57.86820 -57.59208 34699 ft 433 kts 205°
2026-04-27 22:52 57.83953 -57.60978 34494 ft 433 kts 205°
2026-04-27 22:52 57.81097 -57.62738 34312 ft 433 kts 205°
2026-04-27 22:53 57.78240 -57.64512 34100 ft 432 kts 205°
2026-04-27 22:53 57.75385 -57.66302 33877 ft 432 kts 205°
2026-04-27 22:53 57.72536 -57.68099 33609 ft 431 kts 205°
2026-04-27 22:53 57.69698 -57.69891 33393 ft 431 kts 205°
2026-04-27 22:54 57.66858 -57.71681 33176 ft 430 kts 205°
2026-04-27 22:54 57.64022 -57.73470 32957 ft 430 kts 205°
2026-04-27 22:54 57.61184 -57.75253 32742 ft 430 kts 205°
2026-04-27 22:54 57.58341 -57.77031 32518 ft 430 kts 205°
2026-04-27 22:55 57.55504 -57.78796 32294 ft 430 kts 205°
2026-04-27 22:55 57.52663 -57.80559 32083 ft 430 kts 205°
2026-04-27 22:55 57.49823 -57.82323 31876 ft 430 kts 205°
2026-04-27 22:55 57.46988 -57.84084 31671 ft 430 kts 205°
2026-04-27 22:56 57.44147 -57.85847 31471 ft 430 kts 205°
2026-04-27 22:56 57.41311 -57.87604 31266 ft 430 kts 205°
2026-04-27 22:56 57.38472 -57.89357 31057 ft 429 kts 205°
2026-04-27 22:56 57.35683 -57.91058 30857 ft 413 kts 205°
2026-04-27 22:57 57.33031 -57.92660 30663 ft 400 kts 206°
2026-04-27 22:57 57.30406 -57.94249 30488 ft 395 kts 206°
2026-04-27 22:57 57.27773 -57.95864 30331 ft 392 kts 206°
2026-04-27 22:57 57.25228 -57.97439 30161 ft 391 kts 206°
2026-04-27 22:58 57.22655 -57.99037 29981 ft 389 kts 206°
2026-04-27 22:58 57.20086 -58.00626 29810 ft 389 kts 206°
2026-04-27 22:58 57.17523 -58.02199 29595 ft 388 kts 206°
2026-04-27 22:58 57.14962 -58.03759 29418 ft 387 kts 206°
2026-04-27 22:59 57.12408 -58.05306 29248 ft 386 kts 206°
2026-04-27 22:59 57.09854 -58.06849 29077 ft 385 kts 206°
2026-04-27 22:59 57.07311 -58.08382 28904 ft 385 kts 206°
2026-04-27 22:59 57.04765 -58.09923 28724 ft 384 kts 206°
2026-04-27 23:00 56.99701 -58.12991 28398 ft 383 kts 206°
2026-04-27 23:00 56.97175 -58.14513 28232 ft 382 kts 206°
2026-04-27 23:00 56.94652 -58.16029 28067 ft 381 kts 206°
2026-04-27 23:01 56.92141 -58.17537 27864 ft 380 kts 205°
2026-04-27 23:01 56.89630 -58.19040 27701 ft 379 kts 205°
2026-04-27 23:01 56.87127 -58.20533 27536 ft 378 kts 205°
2026-04-27 23:01 56.84637 -58.22020 27379 ft 377 kts 205°
2026-04-27 23:02 56.82142 -58.23512 27220 ft 376 kts 205°
2026-04-27 23:02 56.79658 -58.25001 27061 ft 375 kts 205°
2026-04-27 23:02 56.77179 -58.26487 26909 ft 375 kts 205°
2026-04-27 23:02 56.74704 -58.27968 26741 ft 374 kts 205°
2026-04-27 23:03 56.72233 -58.29437 26585 ft 373 kts 205°
2026-04-27 23:03 56.69766 -58.30907 26430 ft 373 kts 205°
2026-04-27 23:03 56.67302 -58.32370 26275 ft 372 kts 205°
2026-04-27 23:03 56.64843 -58.33822 26089 ft 371 kts 205°
2026-04-27 23:04 56.62392 -58.35270 25934 ft 370 kts 205°
2026-04-27 23:04 56.59947 -58.36713 25782 ft 369 kts 205°
2026-04-27 23:04 56.57508 -58.38148 25631 ft 368 kts 205°
2026-04-27 23:04 56.55107 -58.39560 25482 ft 367 kts 205°
2026-04-27 23:05 56.52674 -58.40987 25335 ft 367 kts 205°
2026-04-27 23:05 56.50247 -58.42409 25187 ft 366 kts 205°
2026-04-27 23:05 56.47827 -58.43821 25028 ft 365 kts 205°
2026-04-27 23:05 56.45384 -58.45249 24879 ft 364 kts 205°
2026-04-27 23:06 56.42980 -58.46660 24731 ft 363 kts 205°
2026-04-27 23:06 56.40609 -58.48052 24583 ft 362 kts 205°
2026-04-27 23:06 56.38213 -58.49452 24413 ft 362 kts 205°
2026-04-27 23:06 56.35819 -58.50848 24269 ft 361 kts 205°
2026-04-27 23:07 56.33432 -58.52237 24123 ft 361 kts 205°
2026-04-27 23:07 56.31045 -58.53620 23981 ft 360 kts 205°
2026-04-27 23:07 56.28664 -58.55003 23836 ft 359 kts 205°
2026-04-27 23:07 56.26280 -58.56382 23669 ft 359 kts 205°
2026-04-27 23:08 56.23911 -58.57752 23503 ft 358 kts 205°
2026-04-27 23:08 56.21545 -58.59123 23329 ft 357 kts 205°
2026-04-27 23:08 56.19183 -58.60491 23155 ft 356 kts 205°
2026-04-27 23:08 56.16828 -58.61848 22995 ft 355 kts 205°
2026-04-27 23:09 56.14478 -58.63199 22824 ft 354 kts 204°
2026-04-27 23:09 56.12128 -58.64544 22632 ft 354 kts 204°
2026-04-27 23:09 56.09789 -58.65883 22469 ft 352 kts 204°
2026-04-27 23:09 56.07459 -58.67217 22306 ft 351 kts 204°
2026-04-27 23:10 56.05134 -58.68550 22145 ft 350 kts 204°
2026-04-27 23:10 56.02814 -58.69882 21973 ft 350 kts 204°
2026-04-27 23:10 56.00499 -58.71207 21817 ft 349 kts 204°
2026-04-27 23:10 55.98189 -58.72525 21657 ft 348 kts 204°
2026-04-27 23:11 55.95879 -58.73838 21496 ft 347 kts 204°
2026-04-27 23:11 55.93612 -58.75125 21350 ft 347 kts 204°
2026-04-27 23:11 55.91288 -58.76447 21185 ft 346 kts 204°
2026-04-27 23:11 55.89030 -58.77734 21028 ft 345 kts 204°
2026-04-27 23:12 55.86743 -58.79033 20863 ft 344 kts 204°
2026-04-27 23:12 55.84467 -58.80329 20698 ft 343 kts 205°
2026-04-27 23:12 55.82200 -58.81614 20548 ft 342 kts 205°
2026-04-27 23:12 55.79930 -58.82899 20389 ft 341 kts 205°
2026-04-27 23:13 55.77669 -58.84174 20241 ft 340 kts 205°
2026-04-27 23:13 55.75412 -58.85441 20094 ft 340 kts 205°
2026-04-27 23:13 55.73161 -58.86701 19943 ft 339 kts 205°
2026-04-27 23:13 55.70912 -58.87963 19788 ft 338 kts 205°
2026-04-27 23:14 55.68666 -58.89226 19635 ft 338 kts 205°
2026-04-27 23:14 55.66432 -58.90479 19487 ft 337 kts 205°
2026-04-27 23:14 55.64196 -58.91731 19339 ft 336 kts 205°
2026-04-27 23:14 55.61967 -58.92977 19201 ft 336 kts 205°
2026-04-27 23:15 55.59742 -58.94223 19048 ft 335 kts 205°
2026-04-27 23:15 55.57523 -58.95463 18871 ft 334 kts 205°
2026-04-27 23:15 55.55312 -58.96697 18725 ft 333 kts 205°
2026-04-27 23:15 55.53097 -58.97931 18582 ft 333 kts 205°
2026-04-27 23:16 55.50894 -58.99157 18419 ft 332 kts 205°
2026-04-27 23:16 55.48689 -59.00381 18246 ft 331 kts 205°
2026-04-27 23:16 55.46494 -59.01602 18086 ft 331 kts 205°
2026-04-27 23:16 55.44300 -59.02821 17917 ft 330 kts 205°
2026-04-27 23:17 55.42115 -59.04035 17760 ft 329 kts 205°
2026-04-27 23:17 55.39935 -59.05240 17602 ft 328 kts 204°
2026-04-27 23:17 55.37760 -59.06437 17435 ft 327 kts 204°
2026-04-27 23:17 55.35590 -59.07629 17273 ft 326 kts 204°
2026-04-27 23:18 55.33425 -59.08816 17115 ft 325 kts 204°
2026-04-27 23:18 55.31268 -59.10001 16932 ft 324 kts 204°
2026-04-27 23:18 55.29124 -59.11184 16771 ft 323 kts 204°
2026-04-27 23:18 55.26985 -59.12363 16607 ft 322 kts 204°
2026-04-27 23:19 55.25567 -59.13143 16502 ft 322 kts 204°
2026-04-27 23:19 55.23434 -59.14307 16346 ft 321 kts 204°
2026-04-27 23:19 55.21306 -59.15468 16191 ft 320 kts 204°
2026-04-27 23:19 55.19185 -59.16632 16037 ft 319 kts 204°
2026-04-27 23:20 55.17067 -59.17791 15887 ft 318 kts 204°
2026-04-27 23:20 55.14267 -59.19319 15682 ft 318 kts 204°
2026-04-27 23:20 55.12845 -59.20094 15581 ft 317 kts 204°
2026-04-27 23:20 55.10740 -59.21245 15427 ft 316 kts 204°
2026-04-27 23:21 55.08642 -59.22388 15275 ft 316 kts 203°
2026-04-27 23:21 55.06547 -59.23523 15119 ft 315 kts 203°
2026-04-27 23:21 55.04458 -59.24650 14973 ft 314 kts 203°
2026-04-27 23:21 55.02368 -59.25773 14826 ft 314 kts 203°
2026-04-27 23:22 55.00285 -59.26896 14671 ft 313 kts 203°
2026-04-27 23:22 54.98209 -59.28021 14526 ft 312 kts 203°
2026-04-27 23:22 54.96135 -59.29145 14377 ft 312 kts 203°
2026-04-27 23:22 54.94093 -59.30248 14230 ft 311 kts 203°
2026-04-27 23:23 54.92049 -59.31347 14085 ft 302 kts 203°
2026-04-27 23:23 54.90084 -59.32397 13974 ft 289 kts 203°
2026-04-27 23:23 54.88204 -59.33398 13865 ft 277 kts 203°
2026-04-27 23:23 54.86399 -59.34366 13761 ft 267 kts 204°
2026-04-27 23:24 54.84649 -59.35309 13652 ft 262 kts 204°
2026-04-27 23:24 54.82914 -59.36247 13544 ft 260 kts 204°
2026-04-27 23:24 54.81188 -59.37182 13436 ft 260 kts 204°
2026-04-27 23:24 54.79464 -59.38112 13326 ft 259 kts 204°
2026-04-27 23:25 54.77742 -59.39038 13215 ft 259 kts 204°
2026-04-27 23:25 54.76020 -59.39959 13113 ft 259 kts 204°
2026-04-27 23:25 54.74300 -59.40881 13006 ft 258 kts 204°
2026-04-27 23:25 54.72589 -59.41798 12900 ft 258 kts 204°
2026-04-27 23:26 54.70876 -59.42714 12803 ft 257 kts 204°
2026-04-27 23:26 54.69161 -59.43628 12692 ft 258 kts 204°
2026-04-27 23:26 54.67447 -59.44539 12591 ft 258 kts 203°
2026-04-27 23:26 54.65730 -59.45448 12483 ft 257 kts 203°
2026-04-27 23:27 54.64022 -59.46352 12376 ft 257 kts 203°
2026-04-27 23:27 54.62312 -59.47258 12274 ft 257 kts 203°
2026-04-27 23:27 54.60605 -59.48163 12168 ft 256 kts 203°
2026-04-27 23:27 54.58901 -59.49063 12063 ft 256 kts 203°
2026-04-27 23:28 54.57200 -59.49960 11962 ft 256 kts 203°
2026-04-27 23:28 54.55504 -59.50856 11838 ft 255 kts 203°
2026-04-27 23:28 54.53807 -59.51757 11735 ft 255 kts 203°
2026-04-27 23:28 54.52111 -59.52657 11633 ft 255 kts 203°
2026-04-27 23:29 54.50420 -59.53550 11533 ft 254 kts 203°
2026-04-27 23:29 54.48728 -59.54446 11431 ft 254 kts 203°
2026-04-27 23:29 54.47043 -59.55334 11327 ft 253 kts 203°
2026-04-27 23:29 54.45355 -59.56221 11229 ft 253 kts 203°
2026-04-27 23:30 54.43675 -59.57104 11130 ft 253 kts 203°
2026-04-27 23:30 54.41995 -59.57986 11028 ft 252 kts 203°
2026-04-27 23:30 54.40319 -59.58865 10929 ft 252 kts 203°
2026-04-27 23:30 54.38645 -59.59744 10829 ft 251 kts 203°
2026-04-27 23:31 54.36974 -59.60619 10730 ft 251 kts 203°
2026-04-27 23:31 54.35306 -59.61490 10639 ft 251 kts 203°
2026-04-27 23:31 54.33637 -59.62362 10540 ft 250 kts 203°
2026-04-27 23:31 54.31970 -59.63232 10441 ft 250 kts 203°
2026-04-27 23:32 54.30309 -59.64101 10344 ft 249 kts 203°
2026-04-27 23:32 54.28650 -59.64967 10229 ft 249 kts 202°
2026-04-27 23:32 54.26996 -59.65827 10129 ft 248 kts 202°
2026-04-27 23:32 54.25364 -59.66674 10022 ft 248 kts 202°
2026-04-27 23:33 54.23714 -59.67532 9915 ft 248 kts 202°
2026-04-27 23:33 54.22063 -59.68391 9804 ft 248 kts 202°
2026-04-27 23:33 54.20418 -59.69247 9696 ft 247 kts 202°
2026-04-27 23:33 54.18770 -59.70104 9587 ft 247 kts 202°
2026-04-27 23:34 54.17124 -59.70959 9479 ft 247 kts 202°
2026-04-27 23:34 54.15482 -59.71808 9373 ft 247 kts 202°
2026-04-27 23:34 54.13844 -59.72656 9268 ft 246 kts 202°
2026-04-27 23:34 54.12205 -59.73506 9154 ft 246 kts 202°
2026-04-27 23:35 54.10566 -59.74355 9050 ft 246 kts 202°
2026-04-27 23:35 54.08931 -59.75201 8945 ft 245 kts 202°
2026-04-27 23:35 54.07299 -59.76042 8838 ft 245 kts 202°
2026-04-27 23:35 54.05667 -59.76880 8735 ft 245 kts 202°
2026-04-27 23:36 54.04036 -59.77720 8616 ft 245 kts 202°
2026-04-27 23:36 54.02402 -59.78564 8506 ft 245 kts 202°
2026-04-27 23:36 54.00769 -59.79409 8404 ft 245 kts 202°
2026-04-27 23:36 53.99136 -59.80251 8300 ft 245 kts 202°
2026-04-27 23:37 53.97506 -59.81091 8201 ft 245 kts 202°
2026-04-27 23:37 53.95875 -59.81930 8096 ft 244 kts 202°
2026-04-27 23:37 53.94248 -59.82766 7993 ft 244 kts 202°
2026-04-27 23:37 53.92622 -59.83599 7890 ft 244 kts 202°
2026-04-27 23:38 53.90999 -59.84426 7785 ft 244 kts 202°
2026-04-27 23:38 53.89377 -59.85255 7683 ft 243 kts 202°
2026-04-27 23:38 53.87765 -59.86080 7580 ft 243 kts 203°
2026-04-27 23:38 53.86144 -59.86911 7481 ft 243 kts 202°
2026-04-27 23:39 53.84528 -59.87734 7384 ft 243 kts 202°
2026-04-27 23:39 53.82900 -59.88563 7287 ft 244 kts 202°
2026-04-27 23:39 53.81271 -59.89392 7192 ft 244 kts 202°
2026-04-27 23:39 53.79645 -59.90222 7086 ft 244 kts 202°
2026-04-27 23:40 53.78016 -59.91052 6983 ft 244 kts 202°
2026-04-27 23:40 53.76385 -59.91878 6981 ft 245 kts 202°
2026-04-27 23:40 53.74751 -59.92703 6979 ft 245 kts 202°
2026-04-27 23:40 53.73117 -59.93529 6984 ft 245 kts 202°
2026-04-27 23:41 53.71495 -59.94404 6983 ft 243 kts 209°
2026-04-27 23:41 53.70050 -59.95808 6977 ft 239 kts 218°
2026-04-27 23:41 53.68633 -59.97270 6840 ft 239 kts 217°
2026-04-27 23:41 53.67219 -59.98717 6640 ft 235 kts 217°
2026-04-27 23:42 53.65851 -60.00114 6426 ft 226 kts 218°
2026-04-27 23:42 53.64529 -60.01462 6215 ft 218 kts 218°
2026-04-27 23:42 53.63247 -60.02773 6006 ft 214 kts 218°
2026-04-27 23:42 53.61984 -60.04072 5797 ft 212 kts 218°
2026-04-27 23:43 53.60744 -60.05347 5589 ft 211 kts 218°
2026-04-27 23:43 53.59495 -60.06634 5394 ft 210 kts 218°
2026-04-27 23:43 53.58235 -60.07929 5288 ft 210 kts 218°
2026-04-27 23:43 53.57006 -60.09190 5236 ft 209 kts 218°
2026-04-27 23:44 53.55746 -60.10482 5138 ft 209 kts 217°
2026-04-27 23:44 53.54517 -60.11742 5048 ft 209 kts 217°
2026-04-27 23:44 53.53277 -60.13014 5028 ft 209 kts 217°
2026-04-27 23:44 53.52034 -60.14286 5005 ft 209 kts 217°
2026-04-27 23:45 53.50789 -60.15558 4972 ft 209 kts 217°
2026-04-27 23:45 53.49546 -60.16824 4945 ft 209 kts 217°
2026-04-27 23:45 53.48305 -60.18087 4926 ft 209 kts 217°
2026-04-27 23:45 53.47064 -60.19348 4892 ft 208 kts 217°
2026-04-27 23:46 53.45824 -60.20608 4863 ft 208 kts 217°
2026-04-27 23:46 53.44586 -60.21868 4837 ft 208 kts 217°
2026-04-27 23:46 53.43350 -60.23122 4804 ft 208 kts 217°
2026-04-27 23:46 53.42125 -60.24364 4766 ft 197 kts 217°
2026-04-27 23:47 53.40996 -60.25500 4726 ft 184 kts 217°
2026-04-27 23:47 53.39914 -60.26584 4577 ft 178 kts 217°
2026-04-27 23:47 53.38881 -60.27674 4418 ft 173 kts 221°
2026-04-27 23:47 53.37947 -60.28931 4176 ft 173 kts 226°
2026-04-27 23:48 53.37040 -60.30338 3715 ft 184 kts 228°
2026-04-27 23:48 53.36126 -60.31956 3129 ft 199 kts 229°
2026-04-27 23:48 53.35180 -60.33803 2419 ft 215 kts 231°
2026-04-27 23:48 53.34268 -60.35723 1861 ft 208 kts 232°
2026-04-27 23:49 53.33387 -60.37697 1020 ft 216 kts 233°
2026-04-27 23:49 53.32503 -60.39713 433 ft 217 kts 234°
2026-04-27 23:49 53.31660 -60.41742 160 ft 196 kts 236°
2026-04-27 23:49 53.30989 -60.43357 158 ft 145 kts 235°
2026-04-27 23:50 53.30506 -60.44531 160 ft 101 kts 235°
2026-04-27 23:50 53.30202 -60.45276 162 ft 56 kts 236°
2026-04-27 23:50 53.30060 -60.45626 163 ft 16 kts 236°
2026-04-27 23:50 53.30046 -60.45660 163 ft 0 kts 236°
2026-04-27 23:55 53.30013 -60.45727 163 ft 16 kts 195°
2026-04-27 23:55 53.30002 -60.45598 162 ft 15 kts 89°
2026-04-27 23:56 53.30004 -60.45458 162 ft 37 kts 89°
2026-04-27 23:56 53.30006 -60.45299 161 ft 16 kts 88°
2026-04-27 23:56 53.30011 -60.45119 162 ft 15 kts 86°
2026-04-27 23:56 53.30019 -60.44939 162 ft 15 kts 83°
2026-04-27 23:57 53.30038 -60.44761 161 ft 15 kts 75°
2026-04-27 23:57 53.30085 -60.44610 161 ft 8 kts 39°
2026-04-27 23:57 53.30157 -60.44586 161 ft 5 kts 347°
2026-04-27 23:57 53.30222 -60.44568 161 ft 5 kts 53°
2026-04-27 23:58 53.30272 -60.44447 161 ft 6 kts 53°
2026-04-27 23:58 53.30322 -60.44328 161 ft 15 kts 54°
2026-04-27 23:58 53.30385 -60.44181 161 ft 15 kts 54°
2026-04-27 23:58 53.30449 -60.44035 161 ft 15 kts 53°
2026-04-27 23:59 53.30515 -60.43892 161 ft 15 kts 51°
2026-04-27 23:59 53.30583 -60.43753 161 ft 15 kts 50°
2026-04-27 23:59 53.30654 -60.43617 161 ft 15 kts 48°
2026-04-27 23:59 53.30714 -60.43508 161 ft 5 kts 46°
2026-04-28 00:00 53.30782 -60.43386 160 ft 15 kts 48°
2026-04-28 00:00 53.30850 -60.43246 160 ft 15 kts 54°
2026-04-28 00:00 53.30909 -60.43095 160 ft 15 kts 59°
2026-04-28 00:00 53.30964 -60.42939 160 ft 15 kts 60°
2026-04-28 00:01 53.31021 -60.42787 160 ft 15 kts 54°
2026-04-28 00:01 53.31073 -60.42683 160 ft 15 kts 48°
2026-04-28 00:01 53.31141 -60.42544 160 ft 15 kts 53°
2026-04-28 00:01 53.31201 -60.42394 160 ft 15 kts 59°
2026-04-28 00:02 53.31254 -60.42240 160 ft 15 kts 59°
2026-04-28 00:02 53.31298 -60.42127 159 ft 15 kts 56°
2026-04-28 00:02 53.31359 -60.41978 159 ft 15 kts 55°
2026-04-28 00:02 53.31421 -60.41831 159 ft 15 kts 54°
2026-04-28 00:03 53.31484 -60.41683 159 ft 15 kts 56°
2026-04-28 00:03 53.31529 -60.41563 159 ft 10 kts 59°
2026-04-28 00:03 53.31573 -60.41403 159 ft 15 kts 75°
2026-04-28 00:03 53.31579 -60.41224 159 ft 15 kts 95°
2026-04-28 00:04 53.31561 -60.41046 158 ft 15 kts 102°
2026-04-28 00:04 53.31531 -60.40780 158 ft 8 kts 64°
2026-04-28 00:04 53.31482 -60.40710 158 ft 6 kts 149°
2026-04-28 00:05 53.31417 -60.40597 158 ft 15 kts 133°
2026-04-28 00:05 53.31343 -60.40465 158 ft 15 kts 133°
2026-04-28 00:05 53.31269 -60.40333 158 ft 15 kts 133°
2026-04-28 00:05 53.31220 -60.40246 158 ft 15 kts 133°
2026-04-28 00:06 53.31122 -60.40069 158 ft 15 kts 133°
2026-04-28 00:06 53.31048 -60.39937 158 ft 15 kts 133°
2026-04-28 00:06 53.30977 -60.39809 161 ft 9 kts 133°
2026-04-28 00:06 53.30940 -60.39783 158 ft 7 kts 202°
2026-04-28 00:07 53.30902 -60.39828 158 ft 5 kts 221°
2026-04-28 00:07 53.30887 -60.39851 158 ft 0 kts 222°